Time,B instrument,Bx,By,Bz,sigma B,Ion instrument,Status,Tp_par,Tp_perp,carrot,r_sun,clat,clong,earth_he_angle,n_p,vp_x,vp_y,vp_z,vth_p_par,vth_p_perp
1980-07-11 01:31:03,1,12.25,-9.975,13.025,1.39687,1,1,78878.7,182215.0,1697,0.76164651,4.6831727,35.857574,105.94351,22.0905,479.34,119.577,2.53689,36.0859,54.8466
1980-07-11 01:35:31,1,12.5,-11.9,11.425,0.363146,1,1,150522.0,176691.0,1696,0.76163793,4.7291317,35.887207,106.01219,21.3728,489.965,120.874,7.63209,49.8492,54.0089
1980-07-11 01:35:32,1,12.5,-11.9,11.425,0.363146,1,1,82746.2,154369.0,1696,0.76162553,4.7292862,35.886902,106.0119,18.0939,486.447,127.386,-2.06888,36.96,50.4822
1980-07-11 01:36:27,1,12.925,-12.45,10.85,0.491808,1,1,73021.5,159156.0,1696,0.76164412,4.7290545,35.875641,106.01234,18.009,485.095,131.435,4.82979,34.7203,51.2589
1980-07-11 01:39:09,1,11.525,-14.1,9.7,2.54792,1,1,127045.0,130862.0,1696,0.76166272,4.7288227,35.852631,106.01279,20.3435,497.401,127.004,-0.583662,45.7969,46.4798
1980-07-11 01:41:51,1,11.35,-15.225,8.4,1.14209,1,1,137429.0,146439.0,1696,0.76167506,4.7286673,35.829498,106.01308,20.5831,503.067,126.612,-9.04576,47.6317,49.1683
1980-07-11 01:44:33,1,11.0,-15.325,10.8,0.376663,1,1,92635.9,146721.0,1696,0.76169366,4.7284365,35.802582,106.01352,19.3347,503.614,123.568,1.745,39.1064,49.2158
1980-07-11 01:47:15,1,12.175,-14.75,7.6,1.46095,1,1,121439.0,160747.0,1696,0.76171225,4.7282047,35.779602,106.01396,22.4266,489.902,122.291,20.2916,44.7752,51.5145
1980-07-11 01:49:57,1,12.82,-15.8,6.46,0.419524,1,1,136288.0,168077.0,1696,0.76172465,4.7280493,35.756439,106.01425,23.0735,499.002,125.44,7.28992,47.4337,52.6759
1980-07-11 01:52:39,1,13.62,-15.24,2.68,0.24,1,1,167082.0,194043.0,1696,0.76174319,4.7278185,35.729553,106.01469,22.0795,493.37,128.393,6.79768,52.5197,56.5988
1980-07-11 01:55:21,1,12.98,-14.58,0.14,1.85731,1,1,215384.0,175378.0,1696,0.76176178,4.7275867,35.706543,106.01514,24.4249,497.822,131.481,18.6782,59.63,53.8079
1980-07-11 01:58:03,1,13.95,-13.725,-0.125,0.739087,1,1,190417.0,194356.0,1696,0.76178038,4.727355,35.683563,106.01558,22.7186,488.516,129.134,17.4919,56.0674,56.6444
1980-07-11 02:00:45,1,13.175,-12.825,-1.35,0.649038,1,1,208050.0,166558.0,1696,0.76179278,4.7272005,35.656525,106.01588,24.2745,492.54,127.588,16.7997,58.606,52.4373
1980-07-11 02:03:27,1,15.275,-11.65,2.225,1.23136,1,1,125276.0,156533.0,1696,0.76181132,4.7269688,35.633514,106.01631,19.6777,483.413,130.542,11.4694,45.4771,50.8347
1980-07-11 02:06:09,1,12.925,-14.425,0.625,2.28815,1,1,151991.0,153493.0,1696,0.76182985,4.726737,35.610504,106.01675,21.7633,495.299,137.082,16.5182,50.0918,50.3387
1980-07-11 02:08:51,1,6.46,-18.96,7.12,1.76929,1,1,137036.0,124116.0,1696,0.76184225,4.7265825,35.583466,106.01704,20.6794,517.107,122.778,11.0077,47.5636,45.266
1980-07-11 02:11:33,1,7.62,-11.84,-6.72,2.52222,1,1,235239.0,184201.0,1696,0.76186085,4.7263508,35.560455,106.01749,26.951,510.628,113.18,55.2006,62.3179,55.1446
1980-07-11 02:14:15,1,13.62,-10.08,-4.54,1.48782,1,1,182390.0,157143.0,1696,0.76187938,4.726119,35.533569,106.01793,23.2326,491.712,104.597,45.5824,54.873,50.9338
1980-07-11 02:16:57,1,13.74,-12.64,-5.22,1.09105,1,1,213550.0,182088.0,1696,0.76189178,4.7259655,35.510406,106.01822,24.2032,502.23,110.344,43.391,59.3756,54.8275
1980-07-11 02:19:39,1,11.3,-12.575,-4.775,0.760756,1,1,178677.0,177644.0,1696,0.76191032,4.7257338,35.487427,106.01866,24.2459,505.012,118.916,52.9093,54.3116,54.1543
1980-07-11 02:22:21,1,12.175,-3.45,18.975,1.45817,1,1,103952.0,183132.0,1696,0.76192892,4.725502,35.46051,106.0191,20.5405,503.136,94.4849,-30.208,41.426,54.9845
1980-07-11 02:25:03,1,10.35,-14.9,7.6,2.07304,1,1,218830.0,153458.0,1696,0.76194745,4.7252703,35.437531,106.01955,22.7065,507.904,140.26,14.7869,60.105,50.333
1980-07-11 02:27:45,1,13.25,-13.65,6.9,1.84797,1,1,174360.0,180328.0,1696,0.76195985,4.7251158,35.414368,106.01984,25.0364,489.878,138.282,31.4904,53.6514,54.562
1980-07-11 02:30:27,1,12.5,-17.02,4.16,0.712741,1,1,161354.0,140431.0,1696,0.76197839,4.724885,35.387482,106.02028,22.3857,500.024,120.218,18.0897,51.6117,48.1492
1980-07-11 02:33:09,1,12.7,-15.76,2.58,1.15065,1,1,186562.0,157995.0,1696,0.76199692,4.7246532,35.364471,106.02072,23.6492,501.355,116.197,21.3737,55.4969,51.0717
1980-07-11 02:35:51,1,8.68,-16.56,-4.34,0.553534,1,1,217998.0,148255.0,1696,0.76200932,4.7244987,35.341339,106.02101,22.1679,514.183,121.715,45.6909,59.9907,49.4723
1980-07-11 02:38:33,1,3.88,-11.64,-15.02,1.76227,1,1,159789.0,193027.0,1696,0.76202792,4.724267,35.314423,106.02145,21.3458,543.115,78.8072,75.7527,51.3607,56.4504
1980-07-11 02:41:15,1,2.875,-9.175,-17.175,0.539096,1,1,131229.0,173952.0,1696,0.76204646,4.7240353,35.291443,106.0219,20.8152,541.406,76.1109,75.6307,46.545,53.5886
1980-07-11 02:43:57,1,1.375,-10.1,-16.325,0.594769,1,1,162702.0,171468.0,1696,0.76205885,4.7238808,35.26828,106.02219,21.2823,548.599,74.7427,77.2302,51.8268,53.2046
1980-07-11 02:46:39,1,11.625,-15.75,3.5,4.08893,1,1,286689.0,230215.0,1696,0.76207739,4.72365,35.241394,106.02263,20.1181,514.633,90.8578,43.6197,68.7961,61.6489
1980-07-11 02:49:21,1,9.3,-19.16,-11.7,0.656049,1,1,319160.0,421980.0,1696,0.76209599,4.7234182,35.218384,106.02307,12.027,611.376,-2.34948,39.9021,72.5876,83.4648
1980-07-11 02:52:03,1,8.3,-18.9,-12.92,0.511468,1,1,285439.0,502381.0,1696,0.76211452,4.7231865,35.195404,106.02351,11.8525,583.91,-0.550161,37.8419,68.6458,91.0699
1980-07-11 02:54:45,1,3.3,-13.24,-18.98,0.669328,1,1,228809.0,308003.0,1696,0.76212692,4.723032,35.168335,106.0238,11.641,561.401,13.4899,26.0584,61.4603,71.3075
1980-07-11 02:57:27,1,5.64,-14.26,-16.42,2.20055,1,1,236441.0,295919.0,1696,0.76214546,4.7228003,35.145355,106.02425,10.7315,567.371,7.00198,23.3216,62.4768,69.8947
1980-07-11 03:00:09,1,-1.36,-13.62,-20.4,0.521536,1,1,107989.0,175137.0,1696,0.76216406,4.7225695,35.118439,106.02469,12.1288,567.922,2.57479,20.6138,42.2228,53.7709
1980-07-11 03:02:51,1,2.625,-15.4,-18.625,0.688295,1,1,105609.0,196864.0,1696,0.76217639,4.722415,35.095306,106.02498,11.0313,573.179,-5.47817,20.5517,41.755,57.0087
1980-07-11 03:05:33,1,3.26,-16.88,-19.12,0.381576,1,1,74165.0,160923.0,1696,0.76219493,4.7221832,35.072296,106.02541,10.6027,565.826,-2.6865,9.49155,34.9911,51.5426
1980-07-11 03:08:15,1,3.62,-16.26,-19.56,0.300666,1,1,75822.9,156005.0,1696,0.76221347,4.7219524,35.04538,106.02585,10.7036,566.721,-1.74146,12.3313,35.38,50.7489
1980-07-11 03:10:57,1,4.08,-17.94,-18.16,0.28,1,1,79646.2,141040.0,1696,0.76222587,4.7217979,35.022247,106.02614,10.5125,563.138,-1.01421,10.9614,36.2611,48.2536
1980-07-11 03:13:39,1,4.7,-18.22,-18.76,0.654217,1,1,73267.6,154534.0,1696,0.7622444,4.7215662,34.999237,106.02658,10.5912,562.931,-4.50238,11.1142,34.7787,50.5091
1980-07-11 03:16:21,1,5.94,-19.38,-17.64,0.538888,1,1,43557.4,137534.0,1696,0.76226294,4.7213354,34.972321,106.02701,6.60462,566.418,-6.29193,0.320436,26.8157,47.65
1980-07-11 03:19:03,1,6.04,-19.22,-17.9,0.368782,1,1,34287.2,135009.0,1696,0.76228148,4.7211037,34.949341,106.02745,7.39738,567.038,-7.82422,-4.24948,23.7916,47.2106
1980-07-11 03:21:45,1,6.42,-19.26,-17.64,1.02879,1,1,54240.8,140920.0,1696,0.76229388,4.7209492,34.926178,106.02774,7.92343,563.904,-9.88435,-6.03942,29.9241,48.2329
1980-07-11 03:24:27,1,5.4,-17.525,-19.1,0.443706,1,1,65197.3,136692.0,1696,0.76231241,4.7207184,34.899292,106.02818,7.87068,565.216,-17.2713,-0.400118,32.8075,47.5039
1980-07-11 03:27:09,1,5.98,-18.84,-17.74,0.811419,1,1,63048.8,132766.0,1696,0.76233095,4.7204866,34.876282,106.02861,7.8725,565.076,-16.6643,-0.386391,32.2624,46.8167
1980-07-11 03:29:51,1,6.12,-18.7,-17.36,0.460435,1,1,53323.8,145345.0,1696,0.76234329,4.7203321,34.853119,106.0289,8.83424,561.253,-3.89526,-10.3774,29.6701,48.9845
1980-07-11 03:32:33,1,5.76,-17.36,-17.68,0.773563,1,1,86694.6,106299.0,1696,0.76236182,4.7201014,34.826233,106.02934,14.2842,567.757,-3.84936,21.3646,37.8315,41.8911
1980-07-11 03:35:15,1,7.36,-15.84,-16.98,1.53571,1,1,63463.4,91494.2,1696,0.76238042,4.7198696,34.803223,106.02979,13.1742,573.97,-3.8202,25.0863,32.3683,38.8647
1980-07-11 03:37:57,1,2.1,-9.32,-16.9,0.722219,1,1,140945.0,84160.6,1696,0.76239276,4.7197151,34.776184,106.03008,15.9905,552.911,16.5233,5.29673,48.2373,37.2746
1980-07-11 03:40:39,1,-14.7,9.98,-14.08,1.53336,1,1,82508.5,123437.0,1696,0.7624113,4.7194843,34.753174,106.03052,7.41233,600.085,-32.7025,47.9849,36.9069,45.142
1980-07-11 03:43:21,1,-16.78,17.02,-8.74,2.05076,1,1,82111.9,103964.0,1696,0.76242983,4.7192526,34.730164,106.03094,9.77543,585.712,-48.2372,22.3351,36.8181,41.4285
1980-07-11 03:46:03,1,-19.04,16.82,-3.56,2.73978,1,1,76059.8,123665.0,1696,0.76244837,4.7190218,34.703278,106.03139,9.53706,588.888,-49.928,24.2713,35.4352,45.1836
1980-07-11 03:48:45,1,-14.98,17.66,-12.28,2.83436,1,1,33224.7,49227.3,1696,0.76246077,4.7188673,34.680115,106.03168,11.6531,596.919,-48.9941,4.22113,23.4201,28.5076
1980-07-11 03:51:27,1,-14.84,20.5,-13.16,0.323728,1,1,39278.8,34561.3,1696,0.76247931,4.7186356,34.657135,106.03212,12.0473,590.602,-63.5634,-5.55901,25.4646,23.8865
1980-07-11 03:54:09,1,-14.48,19.86,-14.0,0.517687,1,1,32249.7,36100.4,1696,0.76249784,4.7184048,34.630219,106.03255,11.259,587.365,-49.3872,-0.556566,23.0739,24.4126
1980-07-11 03:56:51,1,-13.42,20.62,-14.02,0.405956,1,1,80581.0,46715.1,1696,0.76251024,4.7182503,34.607056,106.03284,7.78945,576.406,-59.6409,-3.11902,36.4732,27.7707
1980-07-11 03:59:33,1,-12.94,20.52,-14.88,0.401995,1,1,68525.8,51568.1,1696,0.76252878,4.7180185,34.584076,106.03328,7.81341,584.581,-49.5763,-9.21152,33.6345,29.1775
1980-07-11 04:02:15,1,-13.38,20.48,-14.34,0.183303,1,1,97930.4,42634.6,1696,0.76254731,4.7177877,34.557159,106.03372,6.32401,582.917,-50.3881,-7.99553,40.2084,26.5301
1980-07-11 04:04:57,1,-13.4,20.36,-14.18,0.544059,1,1,49242.4,34314.4,1696,0.76255965,4.7176332,34.534027,106.03401,7.82107,574.785,-47.6505,-9.0387,28.512,23.801
1980-07-11 04:07:39,1,-14.14,21.16,-12.62,0.257682,1,1,35224.8,38063.5,1696,0.76257819,4.7174015,34.511017,106.03444,8.08622,563.732,-51.7836,5.27501,24.1147,25.0676
1980-07-11 04:10:21,1,-13.02,19.92,-14.68,1.13525,1,1,46129.6,37032.4,1696,0.76259673,4.7171698,34.4841,106.03488,5.69709,577.978,-54.7384,-8.8394,27.5961,24.7257
1980-07-11 04:13:03,1,-14.18,18.36,-15.06,0.344093,1,1,66572.8,30706.4,1696,0.76261526,4.716938,34.46109,106.03531,7.17186,564.577,-57.5249,13.9574,33.1517,22.515
1980-07-11 04:15:45,1,-12.38,16.68,-17.52,1.1631,1,1,36975.4,60301.6,1696,0.7626276,4.7167845,34.437958,106.0356,5.08285,566.313,-40.0192,1.89202,24.7067,31.5517
1980-07-11 04:18:27,1,-11.2,17.12,-13.78,2.38814,1,1,141813.0,121966.0,1696,0.76264614,4.7165527,34.411041,106.03604,9.64639,559.759,-21.884,50.4015,48.3857,44.8721
1980-07-11 04:21:09,1,-13.24,21.66,3.54,1.15204,1,1,79019.7,81183.7,1696,0.76266462,4.716321,34.388031,106.03647,36.5625,567.358,-29.9839,15.1005,36.1182,36.6094
1980-07-11 04:23:51,1,-10.24,23.48,6.6,2.08327,1,1,106403.0,78049.5,1696,0.76267701,4.7161665,34.360992,106.03676,33.19,557.268,-38.938,3.6799,41.9116,35.8957
1980-07-11 04:26:33,1,-10.8,19.98,16.28,1.55023,1,1,75804.1,69688.6,1696,0.76269555,4.7159348,34.337982,106.0372,30.3984,552.613,-20.6959,-37.8637,35.3756,33.9187
1980-07-11 04:29:15,1,-6.725,16.1,21.075,0.747496,1,1,112366.0,80352.4,1696,0.76271403,4.715703,34.314972,106.03763,30.2982,541.589,-12.288,-47.5202,43.0701,36.4215
1980-07-11 04:31:57,1,-8.0,15.025,19.175,4.6356,1,1,210816.0,112403.0,1696,0.76272643,4.7155495,34.287933,106.03793,25.4999,530.987,2.66119,-64.7408,58.9942,43.0771
1980-07-11 04:34:39,1,-17.8,16.22,7.32,4.93104,1,1,234617.0,102835.0,1696,0.76274496,4.7153177,34.264923,106.03836,26.0383,577.247,-20.7286,2.68425,62.2355,41.203
1980-07-11 04:37:21,1,-16.24,13.34,16.72,4.85081,1,1,328686.0,125364.0,1696,0.76276344,4.715086,34.241943,106.0388,30.0469,576.301,-2.76087,-22.4523,73.6629,45.4929
1980-07-11 04:40:03,1,-14.8,18.94,13.46,2.2735,1,1,291555.0,85978.8,1696,0.76278198,4.7148542,34.215027,106.03923,23.5825,575.767,-19.7376,-27.4715,69.3774,37.675
1980-07-11 04:42:45,1,-13.46,23.6,5.54,0.576888,1,1,128051.0,61436.7,1696,0.76279432,4.7146997,34.191864,106.03952,20.4463,563.147,-41.8024,16.8027,45.978,31.8472
1980-07-11 04:45:27,1,-15.32,22.76,6.7,1.08995,1,1,88595.4,87556.4,1696,0.76281285,4.714469,34.168884,106.03996,15.2465,574.309,-50.2695,7.25593,38.244,38.0191
1980-07-11 04:48:09,1,-14.98,23.6,4.02,0.689348,1,1,72503.8,60193.6,1696,0.76283139,4.7142372,34.141968,106.04039,17.4195,571.099,-44.8682,19.8665,34.597,31.5234
1980-07-11 04:50:51,1,-15.38,23.02,4.78,1.13877,1,1,65252.6,94033.9,1696,0.76284373,4.7140827,34.118805,106.04068,16.0207,578.393,-56.021,5.18589,32.8214,39.4004
1980-07-11 05:00:16,1,-17.15,22.125,4.475,0.613392,1,1,49493.8,68627.1,1697,0.76294017,4.6663651,33.966278,105.97409,16.7047,583.511,-45.953,5.44013,28.5847,33.6594
1980-07-11 05:03:00,1,-15.86,22.91,6.27,0.71232,1,1,43392.0,76409.3,1696,0.76292402,4.7130795,34.007416,106.04257,14.0249,579.579,-52.9961,-5.01484,26.7647,35.5166
1980-07-11 05:04:20,1,-16.0889,22.6778,4.92222,1.66266,1,1,27671.7,44021.8,1696,0.76293021,4.7130022,33.99585,106.04271,20.7114,585.71,-48.3712,-25.7093,21.3735,26.9583
1980-07-11 05:05:41,1,-15.7,21.57,4.23,0.726774,1,1,41631.7,70330.7,1696,0.76293635,4.712925,33.984283,106.04286,21.1934,577.688,-52.9243,-3.04673,26.2162,34.0746
1980-07-11 05:07:02,1,-15.5,21.84,5.36,0.422847,1,1,44111.6,72133.0,1696,0.76294869,4.7127705,33.972839,106.04315,21.8603,582.005,-44.9148,-11.7444,26.9857,34.5084
1980-07-11 05:08:22,1,-15.8,21.49,5.44,0.968143,1,1,55190.3,84204.1,1696,0.76295489,4.7126942,33.961273,106.04329,18.9527,582.475,-47.8583,-14.1687,30.1849,37.2842
1980-07-11 05:09:43,1,-14.8222,22.1778,5.46667,1.27153,1,1,36704.4,59875.8,1696,0.76296103,4.7126169,33.949707,106.04344,20.9953,522.249,-16.5196,-15.1669,24.616,31.4401
1980-07-11 05:11:04,1,-14.37,8.86,20.92,1.2931,1,1,86626.9,78089.7,1696,0.76297337,4.7124624,33.934357,106.04372,16.0082,582.064,6.61285,-82.3298,37.8168,35.905
1980-07-11 05:12:25,1,-13.4,9.5,19.96,0.65146,1,1,290946.0,127495.0,1696,0.76297957,4.7123852,33.922791,106.04387,23.7074,550.137,10.6484,-39.0129,69.3049,45.8779
1980-07-11 05:13:47,1,-13.9556,9.48889,20.1889,1.20277,1,1,221144.0,141660.0,1696,0.76298571,4.7123079,33.911194,106.04401,21.5648,555.822,-5.07947,-45.5097,60.422,48.3595
1980-07-11 05:15:08,1,-12.32,10.03,21.46,1.06775,1,1,123473.0,109178.0,1696,0.76299804,4.7121544,33.89978,106.0443,18.9995,551.537,-1.26763,-65.7985,45.1486,42.4546
1980-07-11 05:16:29,1,-14.02,10.03,20.9,0.643195,1,1,108154.0,142578.0,1696,0.76300424,4.7120771,33.888214,106.04445,18.2983,566.081,1.64403,-55.65,42.2552,48.5159
1980-07-11 05:17:50,1,-14.74,11.39,19.41,0.529339,1,1,353112.0,134317.0,1696,0.76301038,4.7119999,33.872711,106.04459,17.9898,553.153,7.02255,-38.0859,76.3509,47.0893
1980-07-11 05:19:11,1,-11.94,10.05,21.82,1.78508,1,1,723081.0,153773.0,1696,0.76302272,4.7118454,33.861298,106.04488,20.3527,539.107,16.8835,-54.278,109.258,50.3847
1980-07-11 05:20:32,1,-8.49,12.13,23.24,3.1208,1,1,131069.0,53623.1,1696,0.76302892,4.7117682,33.849731,106.04503,7.56227,563.569,2.46777,-84.6744,46.5167,29.7532
1980-07-11 05:23:14,1,-19.5889,13.9,13.2,1.56592,1,1,94542.7,71499.7,1696,0.7630474,4.7115374,33.826721,106.04546,18.8718,491.19,18.5223,-117.009,39.5068,34.3566
1980-07-11 05:24:34,1,-17.1667,19.8667,0.922222,3.20894,1,1,81187.3,139433.0,1696,0.7630536,4.7114601,33.815125,106.04559,17.566,577.151,-46.3931,40.9916,36.6102,47.9779
1980-07-11 05:25:55,1,-17.42,20.16,1.63,0.41,1,1,64983.8,80439.5,1696,0.76305979,4.7113829,33.799652,106.04575,14.8541,576.068,-48.6479,23.9399,32.7537,36.4412
1980-07-11 05:27:16,1,-17.3,20.64,1.02,0.765506,1,1,76417.3,83814.6,1696,0.76307207,4.7112284,33.788239,106.04604,15.4405,577.879,-47.7994,20.1595,35.5184,37.1978
1980-07-11 05:28:37,1,-17.29,20.82,2.34,0.422966,1,1,48290.5,62000.7,1696,0.76307827,4.7111511,33.776642,106.04617,16.2251,575.872,-45.5849,14.2874,28.2351,31.9931
1980-07-11 05:29:59,1,-16.85,20.78,1.32,0.334215,1,1,74974.1,84157.3,1696,0.76308447,4.7110739,33.765076,106.04633,16.4131,576.597,-45.3633,13.7497,35.1814,37.2738
1980-07-11 05:31:20,1,-16.89,20.66,0.26,0.428602,1,1,51484.2,50339.2,1696,0.76309681,4.7109203,33.753632,106.0466,17.2314,571.572,-44.8203,23.6737,29.1538,28.8278
1980-07-11 05:34:02,1,-17.1667,19.9778,-1.46667,0.692464,1,1,47338.7,63837.4,1696,0.76311529,4.7106886,33.726746,106.04704,16.415,574.068,-43.9613,26.0156,27.9554,32.4635
1980-07-11 05:35:23,1,-16.41,21.79,1.36,0.261151,1,1,84628.5,95807.5,1696,0.76312149,4.7106113,33.715149,106.04718,10.6247,576.109,-41.4788,25.8961,37.378,39.7702
1980-07-11 05:38:05,1,-16.53,21.18,0.6,0.596406,1,1,73458.5,96594.6,1696,0.76313996,4.7103806,33.692169,106.04762,12.7934,570.06,-40.6221,35.9782,34.824,39.9332
1980-07-11 05:39:26,1,-16.5111,20.3333,-3.68889,0.623412,1,1,49820.1,53954.7,1696,0.76314616,4.7103033,33.680573,106.04776,12.598,570.395,-43.8268,31.0837,28.6787,29.8451
1980-07-11 05:40:47,1,-17.04,20.28,-1.67,0.419643,1,1,67604.3,85148.0,1696,0.7631523,4.7102261,33.6651,106.04791,10.9722,573.626,-45.5283,13.0687,33.4076,37.4926
1980-07-11 05:42:08,1,-17.27,20.34,1.74,0.380657,1,1,47850.9,47456.8,1696,0.76316464,4.7100716,33.653656,106.04819,12.6606,571.926,-45.0057,16.5294,28.1063,27.9903
1980-07-11 05:43:29,1,-16.84,20.93,-0.31,0.381314,1,1,54394.6,72514.4,1696,0.76317084,4.7099943,33.64209,106.04834,10.1764,576.966,-52.2312,7.3781,29.9665,34.5995
1980-07-11 05:46:10,1,-17.0,21.0111,0.0777778,0.29523,1,1,86884.8,62753.5,1696,0.76318932,4.7097635,33.61908,106.04877,9.08436,585.018,-41.85,6.88536,37.873,32.1867
1980-07-11 05:47:31,1,-16.89,20.8,-0.33,0.482701,1,1,55827.7,56779.0,1696,0.76319551,4.7096863,33.607513,106.04892,9.82619,577.828,-41.8233,-1.07524,30.3587,30.6162
1980-07-11 05:48:52,1,-16.84,20.64,-0.02,0.458694,1,1,72666.0,70841.3,1696,0.76320165,4.709609,33.592041,106.04906,10.9984,584.95,-36.0086,-2.31617,34.6357,34.198
1980-07-11 05:50:13,1,-16.8,20.6545,0.263636,0.297371,1,1,54337.8,58711.7,1696,0.76321399,4.7094545,33.580597,106.04935,11.0807,575.41,-41.8927,-8.62334,29.9508,31.1329
1980-07-11 05:51:34,1,-16.08,20.2,-1.73,0.606383,1,1,73759.1,77098.4,1696,0.76322019,4.7093773,33.569031,106.04948,12.8217,581.476,-47.8641,1.32251,34.8952,35.6764
1980-07-11 05:52:55,-1,nan,nan,nan,nan,1,4,nan,nan,1696,0.76322633,4.7093,33.557465,106.04964,nan,nan,nan,nan,nan,nan
1980-07-11 05:54:16,1,-14.91,20.09,-4.67,0.538424,1,1,40813.0,80449.9,1696,0.76323867,4.7091465,33.546021,106.04993,10.2195,579.266,-53.4219,13.5455,25.9572,36.4435
1980-07-11 05:55:37,1,-15.87,20.11,-2.94,0.798373,1,1,27668.7,44794.4,1696,0.76324487,4.7090693,33.534454,106.05006,8.62238,588.339,-53.8125,12.0766,21.3724,27.1938
1980-07-11 05:56:59,1,-16.28,20.16,-3.24,0.28,1,1,30242.2,54230.7,1696,0.76325107,4.708992,33.518982,106.05022,7.8246,583.888,-60.8861,13.8335,22.3442,29.9213
1980-07-11 05:58:20,1,-16.14,19.78,-3.24,0.283549,1,1,27432.4,47251.2,1696,0.7632634,4.7088375,33.507538,106.05051,9.10417,586.488,-53.0049,19.556,21.2809,27.9296
1980-07-11 05:59:41,1,-16.1889,20.0667,-2.63333,1.70453,1,1,29625.4,56843.1,1696,0.76326954,4.7087603,33.495972,106.05064,7.00921,582.447,-63.0122,16.1726,22.1151,30.6335
1980-07-11 06:01:02,1,-17.55,19.0,-2.44,0.531883,1,1,27542.3,48444.6,1696,0.76328188,4.7086067,33.484528,106.05093,8.22325,587.633,-51.076,16.3254,21.3235,28.2801
1980-07-11 06:02:23,1,-16.0,20.22,-2.8,0.391918,1,1,27369.3,54375.7,1696,0.76328802,4.7085295,33.472961,106.05107,8.79951,576.591,-65.3688,16.282,21.2564,29.9613
1980-07-11 06:03:44,1,-17.16,19.29,-2.4,0.921575,1,1,46852.4,22930.0,1696,0.76329422,4.7084522,33.457489,106.05122,12.9899,574.268,-49.1872,25.2306,27.8115,19.4563
1980-07-11 06:06:26,1,-16.62,19.6,-1.86,0.343511,1,1,53476.7,34814.6,1696,0.7633127,4.7082214,33.434479,106.05165,7.29768,572.114,-50.2694,13.6995,29.7126,23.9739
1980-07-11 06:07:47,1,-16.92,19.4,-2.51,0.715891,1,1,31063.2,54769.0,1696,0.7633189,4.7081442,33.422882,106.05179,6.30731,581.416,-57.9948,11.1746,22.6455,30.0694
1980-07-11 06:09:08,1,-17.0,19.56,-1.02,0.56921,1,1,26095.2,43779.4,1696,0.76333117,4.7079897,33.411469,106.05208,8.55886,585.499,-50.0644,12.372,20.7557,26.8839
1980-07-11 06:10:29,1,-17.2556,19.2444,-0.388889,0.289316,1,1,32799.4,51963.9,1696,0.76333737,4.7079134,33.399902,106.05223,7.59008,584.4,-61.0862,7.64471,23.2697,29.2893
1980-07-11 06:11:50,1,-16.7,19.42,-1.07,0.561872,1,1,29678.3,46346.9,1696,0.76334351,4.7078362,33.384399,106.05237,7.67623,584.597,-50.0398,4.57836,22.1349,27.661
1980-07-11 06:13:10,1,-16.51,18.89,-1.52,0.520961,1,1,38551.7,51135.8,1696,0.76335585,4.7076817,33.372986,106.05266,11.1139,590.013,-63.9216,5.40516,25.2278,29.055
1980-07-11 06:14:31,1,-14.5,19.6222,-3.85556,0.754084,1,1,65985.1,26072.9,1696,0.76336205,4.7076044,33.361389,106.0528,15.4277,527.09,-29.3204,19.6904,33.0051,20.7469
1980-07-11 06:15:52,1,-15.16,19.38,-3.38,0.53066,1,1,33313.6,53264.0,1696,0.76336819,4.7075272,33.349823,106.05295,13.8977,589.315,-66.0919,16.184,23.4514,29.6534
1980-07-11 06:17:13,1,-15.42,19.73,-2.16,0.576281,1,1,47919.9,55243.9,1696,0.76338053,4.7073736,33.338409,106.05324,11.1851,587.833,-63.0336,14.0551,28.1265,30.1995
1980-07-11 06:18:35,1,-15.85,19.75,0.57,1.50103,1,1,35062.7,50851.5,1696,0.76338667,4.7072964,33.322906,106.05338,10.2426,586.369,-66.2472,-1.39531,24.0592,28.9741
1980-07-11 06:19:56,1,-13.07,21.15,-1.81,1.16082,1,1,46788.2,52339.4,1696,0.76339287,4.7072191,33.31134,106.05351,9.5063,572.923,-79.4957,1.3577,27.7924,29.3949
1980-07-11 06:21:17,1,-14.2222,20.4889,-1.93333,0.422222,1,1,35158.4,50417.3,1696,0.7634052,4.7070656,33.299896,106.0538,12.9587,585.431,-69.9744,8.4351,24.092,28.8501
1980-07-11 06:22:38,1,-14.81,20.02,-1.46,0.78924,1,1,43483.9,46899.8,1696,0.76341134,4.7069883,33.28833,106.05396,9.31814,589.215,-60.1338,5.30906,26.793,27.8255
1980-07-11 06:23:59,1,-15.35,19.25,-1.58,0.529717,1,1,39151.8,52192.5,1696,0.76341754,4.7069111,33.276764,106.05409,11.6588,587.334,-66.7176,4.86824,25.4234,29.3537
1980-07-11 06:25:20,1,-15.71,19.07,-1.88,0.310805,1,1,32951.5,49704.5,1696,0.76342982,4.7067575,33.26532,106.05438,9.37273,586.655,-54.4855,9.18889,23.3236,28.6454
1980-07-11 06:26:41,1,-15.8222,18.8444,-2.22222,0.33222,1,1,33847.3,50370.0,1696,0.76343602,4.7066803,33.249847,106.05452,10.238,587.041,-63.9472,6.8956,23.6385,28.8366
1980-07-11 06:29:22,1,-16.71,17.88,-2.02,0.402616,1,1,29778.9,46627.2,1696,0.7634545,4.7064486,33.226837,106.05496,10.4359,586.019,-62.3782,4.91046,22.1724,27.7445
1980-07-11 06:30:43,1,-17.3667,17.0,-2.0,0.410961,1,1,32847.6,50752.4,1696,0.7634607,4.7063723,33.215271,106.0551,9.21214,588.628,-53.356,6.74007,23.2868,28.9458
1980-07-11 06:32:04,1,-17.36,17.44,0.72,0.713022,1,1,39543.3,57642.1,1696,0.76347297,4.7062178,33.203827,106.05539,9.10911,586.408,-63.7396,-17.9088,25.5502,30.848
1980-07-11 06:33:25,1,-17.49,17.27,1.84,0.376032,1,1,38869.3,70960.8,1696,0.76347917,4.7061405,33.192261,106.05553,8.02868,582.676,-61.7322,-14.1362,25.3315,34.2269
1980-07-11 06:34:47,1,-17.34,17.36,0.92,0.488262,1,1,33022.5,61071.6,1696,0.76348531,4.7060633,33.176788,106.05568,8.83678,580.472,-64.0202,-1.71142,23.3487,31.7525
1980-07-11 06:36:08,-1,nan,nan,nan,nan,1,4,nan,nan,1696,0.76349765,4.7059097,33.165344,106.05597,nan,nan,nan,nan,nan,nan
1980-07-11 06:37:29,1,-17.3333,16.9333,3.16667,0.457044,1,1,53544.8,84226.6,1696,0.76350385,4.7058325,33.153778,106.05611,8.91638,581.742,-60.4394,-8.23431,29.7315,37.2892
1980-07-11 06:38:50,1,-17.63,16.73,2.02,0.371214,1,1,54014.7,29668.9,1696,0.76350999,4.7057552,33.142181,106.05624,11.3885,571.653,-49.2206,-11.9256,29.8617,22.1314
1980-07-11 06:40:11,1,-17.3,16.88,2.55,0.65123,1,1,41799.2,74788.9,1696,0.76352233,4.7056017,33.130768,106.05653,8.53366,578.411,-63.6512,-7.07734,26.2689,35.138
1980-07-11 06:42:53,1,-17.2889,16.5444,0.855556,0.453791,1,1,37703.5,62175.7,1696,0.76353467,4.7054472,33.103699,106.05682,10.1743,580.67,-64.0458,3.7508,24.9487,32.0382